Погода в Почепском

Россия / Воронежская область     51°11′10″N   39°28′14″E
темп.,
°C
ветер,
м/с
пор.,
м/с
влажн.,
%
обл.,
%
осадки,
мм/ч
давл.,
гПа
погр.,
м
18 апреля, вс
вс1800:00+6юз36805 0.0 1019138
03:00+5ююз22845 0.0 101926
06:00+5ююз238631 0.0 101972
09:00+9юз346954 0.1 1019819
12:00+11ююз355795 0.3 10191299
15:00+13ююз354691 0.4 10181905
18:00+12ююв235599 0.2 10181047
21:00+10в2266100 0.3 101824
19 апреля, пн
пн1900:00+9вюв3670100 0.0 1018122
03:00+7юв3473100 0.0 101879
06:00+8ююв227093 0.0 101843
09:00+11вюв465899 0.1 1017523
12:00+15ююв4544100 0.8 10162094
15:00+15ююв564697 0.9 10151793
18:00+14сз1156100 0.2 1015183
21:00+10юв226795 0.4 101633
20 апреля, вт
вт2000:00+9в377290 0.0 1016186
03:00+8вюв5108451 0.1 1016290
06:00+7в511947 0.0 1015366
09:00+10в81281100 0.0 1014841
12:00+9в91585100 0.1 1011761
15:00+7в122192100 8.1 1007865
18:00+9вюв142690100 8.5 10031273
21:00+11юв132290100 11.8 10011185
21 апреля, ср
ср2100:00+11ююв9168751 1.4 1001731
03:00+9ююв91581100 1.6 10021259
06:00+9ююв81487100 0.4 1003968
09:00+7юз71288100 1.1 1007920
12:00+8ююз7128565 0.1 1011987
15:00+13зюз81159100 0.2 10131811
18:00+11юз5869100 0.3 1016919
21:00+7юз3687100 0.3 1019153
22 апреля, чт
чт2200:00+7ююз3485100 0.0 102078
03:00+6юз339152 0.0 102161
06:00+5юз358926 0.0 102297
09:00+10зюз335739 0.0 10241047
12:00+11зсз335289 0.0 10251346
15:00+12сз234851 0.0 10241591
18:00+12с22515 0.0 1025754
21:00+8св11605 0.0 102610